• MPC Preparation (Info)

  • MPEC 2001-U51 : 2001 UO16

    The following Minor Planet Electronic Circular may be linked-to from your own Web pages, but must not otherwise be redistributed electronically.

    A form allowing access to any MPEC is at the bottom of this page.


    Read MPEC 2001-U50 Read MPEC 2001-U52


    M.P.E.C. 2001-U51                                Issued 2001 Oct. 26, 20:31 UT
    
         The Minor Planet Electronic Circulars contain information on unusual
             minor planets and routine data on comets.  They are published
       on behalf of Commission 20 of the International Astronomical Union by the
              Minor Planet Center, Smithsonian Astrophysical Observatory,
                              Cambridge, MA 02138, U.S.A.
    
                 Prepared using the Tamkin Foundation Computer Network
    
                                  MPC@CFA.HARVARD.EDU
              URL http://cfa-www.harvard.edu/iau/mpc.html  ISSN 1523-6714
    
                                       2001 UO16
    
    Observations:
         K01U16O* C2001 10 21.25574 02 38 35.91 +23 38 15.5          18.6        704
         K01U16O  C2001 10 21.27197 02 38 36.08 +23 37 33.2          18.8        704
         K01U16O  C2001 10 21.29017 02 38 36.25 +23 36 46.1          18.8        704
         K01U16O  C2001 10 21.30638 02 38 36.39 +23 36 04.0          19.0        704
         K01U16O  C2001 10 21.32277 02 38 36.51 +23 35 21.7          18.9        704
         K01U16O  C2001 10 22.28984 02 38 49.97 +22 53 22.2          18.3        704
         K01U16O  C2001 10 22.30802 02 38 50.07 +22 52 34.7          18.9        704
         K01U16O  C2001 10 22.32487 02 38 50.21 +22 51 50.7          18.8        704
         K01U16O  C2001 10 22.34188 02 38 50.35 +22 51 06.2          18.7        704
         K01U16O  C2001 10 22.35843 02 38 50.38 +22 50 23.0          19.0        704
         K01U16O  C2001 10 22.84021 02 38 57.33 +22 29 11.5          18.1 V      198
         K01U16O  C2001 10 22.85080 02 38 57.42 +22 28 43.8          18.1 V      198
         K01U16O  C2001 10 22.87080 02 38 57.62 +22 27 51.1          18.0 V      198
         K01U16O  C2001 10 22.98083 02 38 58.55 +22 23 03.3          17.8 V      197
         K01U16O  C2001 10 22.98630 02 38 58.54 +22 22 48.9          17.8 V      197
         K01U16O  C2001 10 23.02491 02 38 58.83 +22 21 06.0          17.8 R      046
         K01U16O  C2001 10 23.02642 02 38 58.88 +22 21 02.6                      046
         K01U16O  C2001 10 23.02752 02 38 58.83 +22 20 59.2                      046
         K01U16O  C2001 10 23.02848 02 38 58.89 +22 20 56.3                      046
         K01U16O  C2001 10 23.05743 02 38 59.03 +22 19 39.9          18.0 R      046
         K01U16O  C2001 10 23.05884 02 38 59.03 +22 19 36.3                      046
         K01U16O  C2001 10 23.06024 02 38 59.07 +22 19 32.4                      046
         K01U16O  C2001 10 23.06120 02 38 59.06 +22 19 30.2                      046
         K01U16O  C2001 10 23.22916 02 39 00.97 +22 12 22.9          18.5 R      859
         K01U16O  C2001 10 23.23212 02 39 00.99 +22 12 15.9          19.0 R      859
         K01U16O  C2001 10 23.23510 02 39 00.90 +22 12 07.6          18.5 R      859
         K01U16O  C2001 10 23.25176 02 39 02.12 +22 11 11.0          18.3        704
         K01U16O  C2001 10 23.25519 02 39 02.12 +22 11 01.6          18.3        704
         K01U16O  C2001 10 23.26791 02 39 02.21 +22 10 28.2          19.1        704
         K01U16O  C2001 10 23.27158 02 39 02.23 +22 10 18.6          18.6        704
         K01U16O  C2001 10 23.28543 02 39 02.34 +22 09 42.3          18.9        704
         K01U16O  C2001 10 23.28798 02 39 02.32 +22 09 35.3          18.1        704
         K01U16O  C2001 10 23.30169 02 39 02.44 +22 08 59.1          18.9        704
         K01U16O  C2001 10 23.30439 02 39 02.41 +22 08 51.8          18.3        704
         K01U16O  C2001 10 23.31789 02 39 02.50 +22 08 15.9          18.7        704
         K01U16O  C2001 10 23.32081 02 39 02.53 +22 08 08.4          18.4        704
         K01U16O  C2001 10 23.32360 02 39 02.44 +22 08 01.7          17.5 R      651
         K01U16O  C2001 10 23.32538 02 39 02.66 +22 07 56.4          17.4 R      651
         K01U16O  C2001 10 23.32733 02 39 02.70 +22 07 52.7          17.4 R      651
         K01U16O  C2001 10 23.70135 02 39 06.62 +21 51 19.4          17.8 V      402
         K01U16O  C2001 10 23.70267 02 39 06.63 +21 51 16.2                      402
         K01U16O  C2001 10 23.70399 02 39 06.65 +21 51 12.7                      402
         K01U16O  C2001 10 23.70530 02 39 06.65 +21 51 08.8                      402
         K01U16O  C2001 10 24.24178 02 39 13.27 +21 27 24.3          18.2        704
         K01U16O  C2001 10 24.24262 02 39 13.29 +21 27 20.6          17.9        704
         K01U16O  C2001 10 24.25914 02 39 13.36 +21 26 36.6          18.5        704
         K01U16O  C2001 10 24.25918 02 39 13.32 +21 26 37.3          18.7        704
         K01U16O  C2001 10 24.27568 02 39 13.44 +21 25 52.5          18.3        704
         K01U16O  C2001 10 24.27575 02 39 13.34 +21 25 53.4          18.7        704
         K01U16O  C2001 10 24.29222 02 39 13.54 +21 25 09.1          18.1        704
         K01U16O  C2001 10 24.29225 02 39 13.46 +21 25 07.1          18.7        704
         K01U16O  C2001 10 24.30877 02 39 13.61 +21 24 24.9          18.5        704
         K01U16O  C2001 10 24.30888 02 39 13.60 +21 24 24.5          18.6        704
         K01U16O  C2001 10 25.24053 02 39 23.38 +20 42 53.3          18.0        704
         K01U16O  C2001 10 25.24233 02 39 23.04 +20 42 53.1          18.2        704
         K01U16O  C2001 10 25.25741 02 39 23.46 +20 42 08.3          18.7        704
         K01U16O  C2001 10 25.25932 02 39 23.47 +20 42 03.3          18.1        704
         K01U16O  C2001 10 25.27404 02 39 23.53 +20 41 24.2          18.6        704
         K01U16O  C2001 10 25.27632 02 39 23.59 +20 41 18.0          18.2        704
         K01U16O  C2001 10 25.29073 02 39 23.56 +20 40 39.2          18.4        704
         K01U16O  C2001 10 25.29509 02 39 23.54 +20 40 28.1          19.1        704
         K01U16O  C2001 10 25.30735 02 39 23.62 +20 39 54.6          18.5        704
         K01U16O  C2001 10 25.31223 02 39 23.72 +20 39 41.5          18.6        704
         K01U16O  C2001 10 25.33684 02 39 23.72 +20 38 36.9          17.8 R      711
         K01U16O  C2001 10 25.34124 02 39 23.73 +20 38 24.7          17.9 R      711
         K01U16O  C2001 10 25.34567 02 39 23.75 +20 38 12.6          17.9 R      711
         K01U16O  C2001 10 25.35367 02 39 23.85 +20 37 52.4          17.6 R      651
         K01U16O  C2001 10 25.35584 02 39 23.97 +20 37 45.3          17.4 R      651
         K01U16O  C2001 10 25.35856 02 39 23.96 +20 37 37.4          17.5 R      651
         K01U16O  C2001 10 26.38745 02 39 33.12 +19 51 29.9          17.8        644
         K01U16O  C2001 10 26.40843 02 39 33.18 +19 50 33.1          18.0        644
         K01U16O  C2001 10 26.42523 02 39 33.03 +19 49 46.8          17.9 R      711
         K01U16O  C2001 10 26.42952 02 39 33.05 +19 49 35.2          17.8 R      711
         K01U16O  C2001 10 26.43387 02 39 33.07 +19 49 23.1          17.9 R      711
         K01U16O  C2001 10 26.43399 02 39 33.27 +19 49 23.7          18.2        644
    
    Observer details:
    046 Klet.  Observer M. Tichy.  0.57-m f/5.2 reflector + CCD.
    197 Bastia.  Observers M. Garoni, F. Cavicchio.  0.42-m f/5.4 reflector + CCD.
    198 Wildberg.  Observer R. Apitzsch.  0.23-m Schmidt-Cassegrain + CCD.
    402 Dynic Astronomical Observatory.  Observer A. Sugie.  0.60-m f/3.7 reflector
        + CCD.
    644 Palomar Mountain/NEAT.  Observers E. F. Helin, S. Pravdo, K. Lawrence,
        M. Hicks, E. Hovland, T. Bickler, J. Schroeder, L. Scherr, R. Thicksten,
        A. Deetz.  1.2-m Schmidt + CCD.
    651 Grasslands Observatory, Tucson.  Observer J. E. McGaha.  0.62-m f/5.1
        reflector + CCD.
    704 Lincoln Laboratory ETS, New Mexico.  Observers M. Blythe, F. Shelly,
        M. Bezpalko, R. Huber, L. Manguso, S. Adams, J. Piscitelli.  Measurers
        J. Stuart, R. Sayer, J. B. Evans, H. Viggh.  1.0-m f/2.15 reflector + CCD.
    711 McDonald Observatory.  Observer P. J. Shelus.  0.76-m reflector + CCD.
    859 Wykrota Observatory-CEAMIG.  Observer C. Jacques.  0.3-m f/3.3
        Schmidt-Cassegrain + CCD.
    
    Orbital elements:
    2001 UO16
    Epoch 2001 Oct. 18.0 TT = JDT 2452200.5                 Spahr
    M   1.87677              (2000.0)            P               Q
    n   0.16069631     Peri.  163.81989     +0.89681575     -0.34532929
    a   3.3506735      Node   220.08726     +0.34316875     +0.93749337
    e   0.5378318      Incl.   25.43116     +0.27920730     -0.04305647
    P   6.13           H   17.5           G   0.15
    From 75 observations 2001 Oct. 21-26.
    
    Ephemeris:
    2001 UO16                a,e,i = 3.35, 0.54, 25                  q = 1.5486
    Date    TT    R. A. (2000) Decl.     Delta      r     Elong.  Phase     V
    2001 10 18    02 37.68   +25 55.9    0.586    1.553   157.3    14.3    18.1
    2001 10 28    02 39.77   +18 38.9    0.575    1.564   170.8     5.8    17.7
    2001 11 07    02 40.56   +11 14.6    0.592    1.581   174.6     3.4    17.7
    2001 11 17    02 41.50   +04 43.2    0.636    1.605   161.6    11.2    18.2
    2001 11 27    02 43.76   -00 17.6    0.703    1.633   149.8    17.7    18.7
    2001 12 07    02 47.98   -03 41.9    0.791    1.667   139.4    22.6    19.2
    2001 12 17    02 54.31   -05 42.4    0.894    1.706   130.5    26.0    19.6
    2001 12 27    03 02.71   -06 37.5    1.009    1.748   122.7    28.3    20.0
    2002 01 06    03 12.94   -06 45.4    1.134    1.794   115.7    29.6    20.3
    2002 01 16    03 24.73   -06 20.5    1.267    1.843   109.3    30.2    20.6
    2002 01 26    03 37.86   -05 34.2    1.406    1.895   103.4    30.4    20.9
    2002 02 05    03 52.07   -04 35.4    1.550    1.948    97.9    30.1    21.2
    2002 02 15    04 07.18   -03 30.2    1.699    2.004    92.6    29.5    21.4
    2002 02 25    04 23.03   -02 23.5    1.852    2.060    87.5    28.7    21.7
    2002 03 07    04 39.44   -01 19.2    2.006    2.118    82.5    27.7    21.9
    2002 03 17    04 56.30   -00 19.8    2.163    2.177    77.6    26.5    22.1
    
    Timothy B. Spahr             (C) Copyright 2001 MPC           M.P.E.C. 2001-U51
    

    Read MPEC 2001-U50 Read MPEC 2001-U52


    MPEC number:

    Enter an MPEC number in one of the following forms:

    • 1997-B01 (the full form)
    • J97B01 (the packed version of the full form)
    • B01 (the abbreviated form)